Flag for U.S.A. Weather past 2 weeks in Lowell, Massachusetts, U.S.A.

Now
71 °F

Sunny.


Feels Like: 76 °F
Forecast: 63 / 76 °F
Wind: 7 mph from South

Location: Hanscom Field

Current Time: Jun 30, 2015 at 9:55:54 PM

Latest Report: Jun 30, 2015 at 8:56 PM


Visibility: 10 mi

Pressure: 29.96 "Hg

Humidity: 61%

Dew point: 57 °F

Location of LowellLocation

Historic Weather in Lowell — Graph

°F

Lowell temperature yesterday

Maximum temperature yesterday: 73 °F (at 2:56 PM)
Minimum temperature yesterday: 52 °F (at 12:56 AM)
Average temperature yesterday: 62 °F

Past Weeks' High & Low Weather Summary

 TemperatureHumidityPressure
High86 °F (Jun 23, 2:56 PM)100% (Jun 15, 9:56 PM)30.21 "Hg (Jun 15, 9:56 PM)
Low49 °F (Jun 20, 4:56 AM)30% (Jun 17, 3:56 PM)29.64 "Hg (Jun 21, 2:03 PM)
Average67 °F73%29.96 "Hg
* Reported Jun 15 7:56 PM — Jun 30 7:56 PM, Lowell, Weather by CustomWeather, © 2015

Note: Actual official high and low records may vary slightly from our data, if they occured in-between our weather recording intervals... More about our weather records

Advertising

Lowell weather history for previous 24 hours

 ConditionsComfort  
Time TempWeatherWind HumidityBarometerVisibility
7:56 PM
Tue, Jun 30
72 °FSunny.7 mph68%29.95 "Hg10 mi
6:56 PM74 °FSunny.10 mph64%29.95 "Hg10 mi
5:56 PM75 °FPassing clouds.12 mph62%29.96 "Hg10 mi
4:56 PM76 °FBroken clouds.12 mph58%29.96 "Hg10 mi
3:56 PM82 °FPartly sunny.8 mph51%29.96 "Hg10 mi
2:56 PM81 °FPartly sunny.8 mph47%29.98 "Hg10 mi
1:56 PM80 °FScattered clouds.6 mph45%29.98 "Hg10 mi
12:56 PM78 °FScattered clouds.5 mph48%30.00 "Hg10 mi
11:56 AM76 °FSunny.7 mph52%30.01 "Hg10 mi
10:56 AM74 °FPassing clouds.No wind52%30.01 "Hg10 mi
9:56 AM73 °FSunny.No wind50%30.01 "Hg10 mi
8:56 AM69 °FPassing clouds.No wind66%30.03 "Hg10 mi
7:56 AM66 °FPartly sunny.5 mph81%30.03 "Hg10 mi
6:56 AM61 °FOvercast.No wind93%30.01 "Hg10 mi
5:56 AM57 °FPassing clouds.No wind93%30.00 "Hg10 mi
4:56 AM56 °FFog.No wind93%29.99 "Hg3 mi
3:56 AM57 °FClear.No wind96%29.99 "Hg10 mi
2:56 AM60 °FClear.6 mph93%29.98 "Hg10 mi
1:56 AM59 °FClear.5 mph93%29.96 "Hg10 mi
12:56 AM62 °FPassing clouds.5 mph90%29.97 "Hg10 mi
11:56 PM
Mon, Jun 29
65 °FMostly cloudy.5 mph85%29.96 "Hg10 mi
10:56 PM64 °FOvercast.7 mph87%29.94 "Hg10 mi
9:56 PM66 °FOvercast.3 mph84%29.93 "Hg10 mi
Weather by CustomWeather, © 2015

See weather overviewHow to use our weather pages